Weather History for Arlington, WA

Change the Weather History Date:

Saturday, May 25, 2013

  Actual Average Record
Temperature  
Mean Temperature 56 °F -  
Max Temperature 64 °F 64 °F 75 °F (2005)
Min Temperature 48 °F 39 °F 35 °F (2000)
Degree Days  
Heating Degree Days 9    
Growing Degree Days 6 (Base 50)    
Moisture  
Dew Point 46 °F    
Average Humidity 71    
Maximum Humidity 93    
Minimum Humidity 45    
Precipitation  
Precipitation 0.01 in - - ()
Sea Level Pressure  
Sea Level Pressure 30.04 in    
Wind  
Wind Speed 4 mph (South)    
Max Wind Speed 12 mph    
Max Gust Speed 17 mph    
Visibility 10 miles    
Events      
Averages and records for this station are not official NWS values.
T = Trace of Precipitation, MM = Missing Value Source: NWS Daily Summary

Daily Weather History Graph

Daily Weather History Graph

Search for Another Location

Airport:

Trip Planner

Search our weather history database for the weather conditions in past years. The results will help you decide how hot, cold, wet, or windy it might be!

Date:

Astronomy

May. 25, 2013 Rise Set
Actual Time 5:17 AM PDT 8:54 PM PDT
Civil Twilight 4:38 AM PDT 9:33 PM PDT
Nautical Twilight 3:46 AM PDT 10:25 PM PDT
Astronomical Twilight 2:34 AM PDT 11:38 PM PDT
Moon 9:46 PM PDT (5/25) 5:51 AM PDT (5/25)
Length of Visible Light 16h 54m
Length of Day
15h 36m
Waxing Gibbous, 99% of the Moon is Illuminated
May 25
Waxing Gibbous
May 31
Last Quarter
Jun 8
New
Jun 16
First Quarter
Jun 23
Full

Hourly Weather History & Observations

Time (PDT) Temp. Dew Point Humidity Pressure Visibility Wind Dir Wind Speed Gust Speed Precip Events Conditions
12:15 AM 51.8 °F 46.4 °F 82% 30.06 in 10.0 mi Calm Calm - 0.01 in   Unknown
12:35 AM 51.8 °F 48.2 °F 88% 30.06 in 10.0 mi Calm Calm - 0.01 in   Unknown
12:55 AM 51.8 °F 48.2 °F 88% 30.06 in 8.0 mi Calm Calm - 0.01 in   Unknown
1:15 AM 51.8 °F 48.2 °F 88% 30.06 in 10.0 mi Calm Calm - N/A   Unknown
1:35 AM 51.8 °F 48.2 °F 88% 30.05 in 10.0 mi Calm Calm - N/A   Unknown
1:55 AM 51.8 °F 48.2 °F 88% 30.05 in 10.0 mi Calm Calm - N/A   Unknown
2:15 AM 51.8 °F 48.2 °F 88% 30.05 in 10.0 mi Calm Calm - N/A   Unknown
2:35 AM 51.8 °F 48.2 °F 88% 30.05 in 10.0 mi South 3.5 mph - N/A   Unknown
2:55 AM 51.8 °F 46.4 °F 82% 30.05 in 10.0 mi SSE 5.8 mph - N/A   Unknown
3:15 AM 50.0 °F 46.4 °F 87% 30.05 in 10.0 mi SSE 8.1 mph - N/A   Unknown
3:35 AM 50.0 °F 46.4 °F 87% 30.05 in 10.0 mi SSE 6.9 mph - N/A   Unknown
3:55 AM 50.0 °F 46.4 °F 87% 30.05 in 10.0 mi SE 5.8 mph - N/A   Unknown
4:15 AM 50.0 °F 46.4 °F 87% 30.05 in 10.0 mi ESE 6.9 mph - N/A   Unknown
4:35 AM 50.0 °F 46.4 °F 87% 30.05 in 10.0 mi SE 5.8 mph - N/A   Unknown
4:55 AM 48.2 °F 46.4 °F 93% 30.05 in 10.0 mi SSE 4.6 mph - N/A   Unknown
5:15 AM 48.2 °F 46.4 °F 93% 30.05 in 10.0 mi SSE 4.6 mph - N/A   Unknown
5:35 AM 50.0 °F 46.4 °F 87% 30.05 in 10.0 mi SE 5.8 mph - N/A   Unknown
5:55 AM 50.0 °F 46.4 °F 87% 30.05 in 10.0 mi Calm Calm - N/A   Unknown
6:15 AM 50.0 °F 46.4 °F 87% 30.05 in 10.0 mi SE 4.6 mph - N/A   Unknown
6:35 AM 50.0 °F 46.4 °F 87% 30.05 in 10.0 mi SE 5.8 mph - N/A   Unknown
6:55 AM 51.8 °F 48.2 °F 88% 30.06 in 10.0 mi SSE 4.6 mph - N/A   Unknown
7:15 AM 51.8 °F 46.4 °F 82% 30.06 in 10.0 mi SE 5.8 mph - N/A   Unknown
7:35 AM 51.8 °F 46.4 °F 82% 30.06 in 10.0 mi SE 5.8 mph - N/A   Unknown
7:55 AM 51.8 °F 46.4 °F 82% 30.06 in 10.0 mi SSE 5.8 mph - N/A   Unknown
8:15 AM 51.8 °F 46.4 °F 82% 30.06 in 10.0 mi SSE 5.8 mph - N/A   Unknown
8:35 AM 51.8 °F 46.4 °F 82% 30.06 in 10.0 mi SSE 8.1 mph - N/A   Unknown
8:55 AM 53.6 °F 46.4 °F 77% 30.06 in 10.0 mi South 8.1 mph - N/A   Unknown
9:15 AM 53.6 °F 46.4 °F 77% 30.06 in 10.0 mi South 10.4 mph - N/A   Unknown
9:35 AM 55.4 °F 46.4 °F 72% 30.06 in 10.0 mi SE 11.5 mph - N/A   Unknown
9:55 AM 55.4 °F 46.4 °F 72% 30.06 in 10.0 mi SSE 10.4 mph - N/A   Unknown
10:15 AM 55.4 °F 46.4 °F 72% 30.06 in 10.0 mi SSE 11.5 mph - N/A   Unknown
10:35 AM 57.2 °F 46.4 °F 67% 30.05 in 10.0 mi SSE 11.5 mph - N/A   Unknown
10:55 AM 55.4 °F 44.6 °F 67% 30.05 in 10.0 mi South 10.4 mph - N/A   Unknown
11:15 AM 55.4 °F 44.6 °F 67% 30.05 in 10.0 mi South 9.2 mph - N/A   Unknown
11:35 AM 57.2 °F 46.4 °F 67% 30.05 in 10.0 mi South 8.1 mph - N/A   Unknown
11:55 AM 59.0 °F 46.4 °F 63% 30.05 in 10.0 mi South 9.2 mph 17.3 mph N/A   Unknown
12:15 PM 57.2 °F 46.4 °F 67% 30.05 in 10.0 mi SSW 6.9 mph - N/A   Unknown
12:35 PM 57.2 °F 44.6 °F 63% 30.05 in 10.0 mi South 8.1 mph - N/A   Unknown
12:55 PM 55.4 °F 44.6 °F 67% 30.05 in 10.0 mi South 6.9 mph - N/A   Unknown
1:15 PM 57.2 °F 46.4 °F 67% 30.05 in 10.0 mi South 6.9 mph - N/A   Unknown
1:35 PM 60.8 °F 46.4 °F 59% 30.04 in 10.0 mi SE 10.4 mph - N/A   Unknown
1:55 PM 60.8 °F 44.6 °F 55% 30.04 in 10.0 mi SSE 5.8 mph - N/A   Unknown
2:15 PM 60.8 °F 44.6 °F 55% 30.04 in 10.0 mi SSE 4.6 mph - N/A   Unknown
2:35 PM 60.8 °F 44.6 °F 55% 30.04 in 10.0 mi SSE 6.9 mph - N/A   Unknown
2:55 PM 60.8 °F 44.6 °F 55% 30.03 in 10.0 mi South 8.1 mph - N/A   Unknown
3:15 PM 62.6 °F 44.6 °F 52% 30.03 in 10.0 mi South 5.8 mph - N/A   Unknown
3:35 PM 62.6 °F 44.6 °F 52% 30.03 in 10.0 mi South 8.1 mph - N/A   Unknown
3:55 PM 62.6 °F 44.6 °F 52% 30.03 in 10.0 mi SSE 8.1 mph - N/A   Unknown
4:15 PM 64.4 °F 46.4 °F 52% 30.02 in 10.0 mi SSW 8.1 mph - N/A   Unknown
4:35 PM 62.6 °F 44.6 °F 52% 30.02 in 10.0 mi SW 6.9 mph - N/A   Unknown
4:55 PM 64.4 °F 42.8 °F 45% 30.02 in 10.0 mi South 8.1 mph - N/A   Unknown
5:15 PM 64.4 °F 42.8 °F 45% 30.02 in 10.0 mi SSW 6.9 mph - N/A   Unknown
5:35 PM 60.8 °F 41.0 °F 48% 30.02 in 10.0 mi SSW 8.1 mph - N/A   Unknown
5:55 PM 60.8 °F 42.8 °F 52% 30.02 in 10.0 mi South 8.1 mph - N/A   Unknown
6:15 PM 60.8 °F 42.8 °F 52% 30.01 in 10.0 mi South 8.1 mph - N/A   Unknown
6:35 PM 62.6 °F 42.8 °F 48% 30.01 in 10.0 mi SSW 6.9 mph - N/A   Unknown
6:55 PM 60.8 °F 42.8 °F 52% 30.01 in 10.0 mi SW 5.8 mph - N/A   Unknown
7:15 PM 60.8 °F 42.8 °F 52% 30.02 in 10.0 mi SW 5.8 mph - N/A   Unknown
7:35 PM 59.0 °F 42.8 °F 55% 30.02 in 10.0 mi SW 4.6 mph - N/A   Unknown
7:55 PM 59.0 °F 42.8 °F 55% 30.02 in 10.0 mi SW 4.6 mph - N/A   Unknown
8:15 PM 57.2 °F 44.6 °F 63% 30.01 in 10.0 mi SSW 3.5 mph - N/A   Unknown
8:35 PM 57.2 °F 44.6 °F 63% 30.01 in 10.0 mi Calm Calm - N/A   Unknown
8:55 PM 57.2 °F 44.6 °F 63% 30.01 in 10.0 mi Calm Calm - N/A   Unknown
9:15 PM 57.2 °F 44.6 °F 63% 30.01 in 10.0 mi Calm Calm - N/A   Unknown
9:35 PM 55.4 °F 44.6 °F 67% 30.01 in 10.0 mi Calm Calm - N/A   Unknown
9:55 PM 55.4 °F 44.6 °F 67% 30.02 in 10.0 mi Calm Calm - N/A   Unknown
10:15 PM 53.6 °F 44.6 °F 72% 30.02 in 10.0 mi Calm Calm - N/A   Unknown
10:35 PM 53.6 °F 46.4 °F 77% 30.02 in 10.0 mi WNW 4.6 mph - N/A   Unknown
10:55 PM 53.6 °F 46.4 °F 77% 30.01 in 10.0 mi NW 5.8 mph - N/A   Unknown
11:15 PM 53.6 °F 46.4 °F 77% 30.01 in 10.0 mi NW 6.9 mph - N/A   Unknown
11:35 PM 51.8 °F 48.2 °F 88% 30.01 in 10.0 mi North - - N/A   Unknown
11:55 PM 51.8 °F 46.4 °F 82% 30.00 in 10.0 mi North - - N/A   Unknown